• In Germany
  • List of Countries
  • For 7 days
  • Water Temperature
  • Satellite Maps
  • Weather Map
  • Weather Widgets
  • user-avatar
    Login

    Hourly Weather Hajfa

    Today, 20 October, Saturday

    Time Temperature Precipitation Wind Pressure Humidity
    00:00 +25°C° 0 mm 2 mps 756 mmHg 80%
    01:00 +25°C° 0 mm 2 mps 756 mmHg 81%
    02:00 +25°C° 0 mm 2 mps 756 mmHg 82%
    03:00 +25°C° 0.2 mm 1 mps 756 mmHg 83%
    04:00 +25°C° 0.2 mm 1 mps 756 mmHg 84%
    05:00 +24°C° 0.2 mm 1 mps 756 mmHg 84%
    06:00 +25°C° 0.6 mm 1 mps 756 mmHg 81%
    07:00 +26°C° 0.6 mm 1 mps 756 mmHg 77%
    08:00 +26°C° 0 mm 1 mps 756 mmHg 73%
    09:00 +27°C° 0.2 mm 1 mps 756 mmHg 67%
    10:00 +28°C° 0.2 mm 2 mps 756 mmHg 61%
    11:00 +29°C° 0.2 mm 2 mps 756 mmHg 55%
    12:00 +30°C° 0.2 mm 3 mps 756 mmHg 55%
    13:00 +30°C° 0.2 mm 3 mps 756 mmHg 54%
    14:00 +30°C° 0.2 mm 3 mps 756 mmHg 54%
    15:00 +29°C° 0.3 mm 3 mps 756 mmHg 57%
    16:00 +28°C° 0.3 mm 3 mps 756 mmHg 61%
    17:00 +27°C° 0.3 mm 3 mps 755 mmHg 65%
    18:00 +27°C° 0.2 mm 2 mps 756 mmHg 67%
    19:00 +26°C° 0.2 mm 2 mps 756 mmHg 69%
    20:00 +26°C° 0.2 mm 2 mps 756 mmHg 71%
    21:00 +26°C° 0 mm 2 mps 756 mmHg 72%
    22:00 +25°C° 0 mm 2 mps 756 mmHg 73%
    23:00 +25°C° 0 mm 2 mps 755 mmHg 75%

    Tomorrow, 21 October, Sunday

    Time Temperature Precipitation Wind Pressure Humidity
    00:00 +25°C° 0 mm 2 mps 755 mmHg 76%
    01:00 +24°C° 0 mm 2 mps 755 mmHg 76%
    02:00 +24°C° 0 mm 2 mps 755 mmHg 77%
    03:00 +24°C° 0.1 mm 2 mps 755 mmHg 78%
    04:00 +24°C° 0.1 mm 2 mps 755 mmHg 78%
    05:00 +23°C° 0.1 mm 2 mps 755 mmHg 79%
    06:00 +24°C° 0.2 mm 2 mps 755 mmHg 75%
    07:00 +25°C° 0.2 mm 3 mps 756 mmHg 70%
    08:00 +26°C° 0.2 mm 3 mps 756 mmHg 66%
    09:00 +27°C° 0.1 mm 3 mps 756 mmHg 63%
    10:00 +28°C° 0.1 mm 3 mps 756 mmHg 59%
    11:00 +29°C° 0.1 mm 3 mps 756 mmHg 56%
    12:00 +29°C° 0 mm 3 mps 756 mmHg 56%
    13:00 +29°C° 0 mm 4 mps 756 mmHg 56%
    14:00 +29°C° 0 mm 4 mps 756 mmHg 55%
    15:00 +29°C° 0 mm 3 mps 756 mmHg 60%
    16:00 +28°C° 0 mm 3 mps 756 mmHg 64%
    17:00 +27°C° 0 mm 3 mps 756 mmHg 69%
    18:00 +26°C° 0 mm 2 mps 756 mmHg 71%
    19:00 +26°C° 0 mm 1 mps 756 mmHg 73%
    20:00 +26°C° 0 mm 1 mps 757 mmHg 76%
    21:00 +25°C° 0 mm 1 mps 757 mmHg 77%
    22:00 +23°C° 0 mm 0 mps 757 mmHg 79%
    23:00 +23°C° 0 mm 0 mps 757 mmHg 80%

    Day after tomorrow, 22 October, Monday

    Time Temperature Precipitation Wind Pressure Humidity
    00:00 +24°C° 0 mm 1 mps 757 mmHg 81%
    01:00 +24°C° 0 mm 1 mps 757 mmHg 82%
    02:00 +24°C° 0 mm 1 mps 757 mmHg 82%
    03:00 +24°C° 0 mm 1 mps 757 mmHg 81%
    04:00 +23°C° 0 mm 2 mps 757 mmHg 80%
    05:00 +23°C° 0 mm 2 mps 757 mmHg 80%
    06:00 +24°C° 0 mm 2 mps 757 mmHg 72%
    07:00 +25°C° 0 mm 3 mps 757 mmHg 64%
    08:00 +26°C° 0 mm 3 mps 758 mmHg 56%
    09:00 +28°C° 0 mm 3 mps 758 mmHg 47%
    10:00 +30°C° 0 mm 3 mps 757 mmHg 38%
    11:00 +32°C° 0 mm 2 mps 757 mmHg 29%
    12:00 +33°C° 0 mm 3 mps 757 mmHg 27%
    13:00 +34°C° 0 mm 3 mps 756 mmHg 26%
    14:00 +35°C° 0 mm 3 mps 756 mmHg 24%
    15:00 +34°C° 0 mm 4 mps 756 mmHg 27%
    16:00 +33°C° 0 mm 4 mps 756 mmHg 30%
    17:00 +32°C° 0 mm 4 mps 756 mmHg 32%
    18:00 +30°C° 0 mm 4 mps 756 mmHg 32%
    19:00 +30°C° 0 mm 4 mps 756 mmHg 32%
    20:00 +29°C° 0 mm 4 mps 756 mmHg 32%
    21:00 +29°C° 0 mm 4 mps 756 mmHg 30%
    22:00 +29°C° 0 mm 4 mps 756 mmHg 29%
    23:00 +29°C° 0 mm 4 mps 756 mmHg 27%

    23 October, Tuesday

    Time Temperature Precipitation Wind Pressure Humidity
    00:00 +28°C° 0 mm 4 mps 756 mmHg 30%
    01:00 +28°C° 0 mm 4 mps 756 mmHg 33%
    02:00 +27°C° 0 mm 4 mps 756 mmHg 36%
    03:00 +27°C° 0.1 mm 4 mps 755 mmHg 39%
    04:00 +26°C° 0.1 mm 4 mps 755 mmHg 41%
    05:00 +26°C° 0.1 mm 4 mps 755 mmHg 44%
    06:00 +27°C° 0 mm 4 mps 756 mmHg 41%
    07:00 +29°C° 0 mm 4 mps 756 mmHg 38%
    08:00 +30°C° 0 mm 4 mps 756 mmHg 34%
    09:00 +32°C° 0 mm 4 mps 756 mmHg 31%
    10:00 +34°C° 0 mm 4 mps 756 mmHg 27%
    11:00 +35°C° 0 mm 3 mps 756 mmHg 23%
    12:00 +36°C° 0 mm 3 mps 755 mmHg 23%
    13:00 +36°C° 0 mm 3 mps 755 mmHg 23%
    14:00 +36°C° 0 mm 3 mps 754 mmHg 23%
    15:00 +35°C° 0 mm 2 mps 754 mmHg 27%
    16:00 +34°C° 0 mm 2 mps 754 mmHg 31%
    17:00 +31°C° 0 mm 1 mps 754 mmHg 35%
    18:00 +31°C° 0 mm 1 mps 754 mmHg 35%
    19:00 +31°C° 0 mm 1 mps 754 mmHg 36%
    20:00 +30°C° 0 mm 1 mps 755 mmHg 36%
    21:00 +30°C° 0 mm 1 mps 754 mmHg 35%
    22:00 +30°C° 0 mm 2 mps 754 mmHg 35%
    23:00 +30°C° 0 mm 2 mps 754 mmHg 34%

    24 October, Wednesday

    Time Temperature Precipitation Wind Pressure Humidity
    00:00 +29°C° 0 mm 2 mps 754 mmHg 33%
    01:00 +29°C° 0 mm 2 mps 753 mmHg 32%
    02:00 +29°C° 0 mm 2 mps 753 mmHg 32%
    03:00 +29°C° 0 mm 2 mps 753 mmHg 32%
    04:00 +28°C° 0 mm 2 mps 753 mmHg 32%
    05:00 +28°C° 0 mm 3 mps 753 mmHg 32%
    06:00 +29°C° 0 mm 2 mps 753 mmHg 32%
    07:00 +29°C° 0 mm 2 mps 754 mmHg 31%
    08:00 +30°C° 0 mm 2 mps 754 mmHg 31%
    09:00 +31°C° 0 mm 2 mps 754 mmHg 30%
    10:00 +32°C° 0 mm 2 mps 754 mmHg 29%
    11:00 +32°C° 0 mm 2 mps 754 mmHg 28%
    12:00 +34°C° 0 mm 3 mps 753 mmHg 29%
    13:00 +34°C° 0 mm 4 mps 753 mmHg 29%
    14:00 +34°C° 0 mm 5 mps 752 mmHg 30%
    15:00 +33°C° 0 mm 4 mps 752 mmHg 35%
    16:00 +32°C° 0 mm 4 mps 752 mmHg 41%
    17:00 +29°C° 0 mm 3 mps 752 mmHg 46%
    18:00 +29°C° 0 mm 3 mps 752 mmHg 48%
    19:00 +28°C° 0 mm 2 mps 753 mmHg 50%
    20:00 +27°C° 0 mm 2 mps 753 mmHg 52%
    21:00 +27°C° 0 mm 2 mps 753 mmHg 51%
    22:00 +27°C° 0 mm 2 mps 753 mmHg 50%
    23:00 +26°C° 0 mm 2 mps 753 mmHg 49%

    25 October, Thursday

    Time Temperature Precipitation Wind Pressure Humidity
    00:00 +26°C° 0.2 mm 2 mps 752 mmHg 49%
    01:00 +26°C° 0.2 mm 2 mps 752 mmHg 49%
    02:00 +25°C° 0.2 mm 3 mps 752 mmHg 49%
    03:00 +25°C° 0.7 mm 3 mps 752 mmHg 49%
    04:00 +25°C° 0.7 mm 3 mps 752 mmHg 48%
    05:00 +25°C° 0.7 mm 3 mps 752 mmHg 48%
    06:00 +25°C° 0.3 mm 3 mps 752 mmHg 46%
    07:00 +26°C° 0.3 mm 4 mps 752 mmHg 45%
    08:00 +26°C° 0.3 mm 5 mps 752 mmHg 44%
    09:00 +28°C° 0.1 mm 6 mps 752 mmHg 41%
    10:00 +29°C° 0.1 mm 6 mps 752 mmHg 39%
    11:00 +32°C° 0.1 mm 7 mps 752 mmHg 37%
    12:00 +32°C° 0 mm 8 mps 752 mmHg 38%
    13:00 +32°C° 0 mm 8 mps 751 mmHg 39%
    14:00 +32°C° 0 mm 9 mps 751 mmHg 40%
    15:00 +31°C° 0.2 mm 8 mps 751 mmHg 44%
    16:00 +28°C° 0.2 mm 7 mps 751 mmHg 48%
    17:00 +27°C° 0.2 mm 6 mps 752 mmHg 51%
    18:00 +27°C° 0.3 mm 7 mps 752 mmHg 53%
    19:00 +27°C° 0.3 mm 7 mps 752 mmHg 55%
    20:00 +26°C° 0.3 mm 8 mps 752 mmHg 58%
    21:00 +26°C° 0.6 mm 8 mps 752 mmHg 61%
    22:00 +24°C° 0.6 mm 8 mps 753 mmHg 65%
    23:00 +24°C° 0.6 mm 9 mps 753 mmHg 69%
    Show more